Overview Statistics Trail Chart Weather Telemetry Raw packets
 

This is the latest recevied weather packets stored in our database for station/object 4S6DRJ-13. If no packets are shown the sender has not sent any weather packets the latest 10 day(s).

<< 527 528 529 530 531 532 533 >>
Time Temp. Humidity Pressure Rain* Wind** Luminosity Snow
1787640581 30° C 76% 1010 hPa 0 mm 1.34 m/s, 244° 197 W/m² -
1787640519 30° C 76% 1010.2 hPa 0 mm 2.68 m/s, 239° 195 W/m² -
1787640458 30° C 75% 1010.3 hPa 0 mm 2.68 m/s, 96° 184 W/m² -
1787640397 30° C 76% 1010.1 hPa 0 mm 0.89 m/s, 172° 212 W/m² -
1787640336 30° C 76% 1010.2 hPa 0 mm 1.79 m/s, 250° 278 W/m² -
1787640275 30° C 76% 1010.3 hPa 0 mm 1.34 m/s, 274° 309 W/m² -
1787640214 30° C 76% 1010.3 hPa 0 mm 2.24 m/s, 356° 339 W/m² -
1787640153 30° C 76% 1010.3 hPa 0 mm 2.68 m/s, 239° 399 W/m² -
1787640092 30° C 75% 1010.5 hPa 0 mm 2.68 m/s, 274° 1116 W/m² -
1787640031 30.56° C 75% 1010.4 hPa 0 mm 4.02 m/s, 247° 1103 W/m² -
1787639970 30.56° C 75% 1010.4 hPa 0 mm 1.79 m/s, 165° 344 W/m² -
1787639909 30.56° C 75% 1010.3 hPa 0 mm 2.24 m/s, 269° 315 W/m² -
1787639848 30.56° C 75% 1010.4 hPa 0 mm 2.24 m/s, 236° 390 W/m² -
1787639787 30.56° C 76% 1010.2 hPa 0 mm 0.45 m/s, 337° 430 W/m² -
1787639726 30.56° C 76% 1010.4 hPa 0 mm 3.13 m/s, 212° 1139 W/m² -
1787639665 30.56° C 75% 1010.4 hPa 0 mm 3.58 m/s, 267° 513 W/m² -
1787639604 30.56° C 75% 1010.3 hPa 0 mm 2.68 m/s, 224° 413 W/m² -
1787639544 30.56° C 76% 1010.3 hPa 0 mm 2.68 m/s, 213° 1133 W/m² -
1787639482 30.56° C 76% 1010.3 hPa 0 mm 2.68 m/s, 232° 1133 W/m² -
1787639422 30.56° C 76% 1010.5 hPa 0 mm 1.79 m/s, 205° 1128 W/m² -
1787639360 30.56° C 76% 1010.3 hPa 0 mm 3.58 m/s, 135° 1128 W/m² -
1787639300 30.56° C 76% 1010.4 hPa 0 mm 2.24 m/s, 87° 366 W/m² -
1787639238 30.56° C 75% 1010.5 hPa 0 mm 2.24 m/s, 259° 465 W/m² -
1787639177 30.56° C 76% 1010.5 hPa 0 mm 1.34 m/s, 279° 528 W/m² -
1787639116 30.56° C 76% 1010.6 hPa 0 mm 0.89 m/s, 215° 490 W/m² -

* Rain latest hour (hover to see other rain measurements)
** Current wind speed in m/s (hover to see current wind gust speed)